Voltar ao catálogo

ATLAS 5 CENTAUR DEB

LostHEO
NORAD 44001·DEBRIS·🇺🇸 United States

Lançado Sep 17, 2014 de Cape Canaveral Space Force Station

Loading…

Próximas Passagens (próximas 24 horas)

TLE

ObsoletoSource: Space-Track

Época: Nov 30, 2021, 23:15 UTC

1 44001U 14055BG  21334.96875380 -.00000043  00000-0  00000+0 0  9990
2 44001  21.3723 307.1432 4808667 227.7152  80.1339  1.76864896 20926

Acompanhe ATLAS 5 CENTAUR DEB em tempo real com AllMySat

Download on the App Store